Retour au catalogue

SL-14 R/B

ActifPO
NORAD 13272·ROCKET BODY·🇷🇺 Russia

Lancé Jun 10, 1982 depuis Plesetsk Cosmodrome

Loading…

Prochains Passages (prochaines 24 heures)

TLE

FraisSource: Space-Track

Époque: Sep 14, 2026, 19:58 UTC

1 13272U 82059B   26257.83195715  .00000362  00000-0  37208-4 0  9995
2 13272  82.5111 202.5742 0019166 112.2224 248.1029 14.87308322372055

Suivez SL-14 R/B en temps réel avec AllMySat

Download on the App Store